LOT3951 EPWA-EPPO

Flight info

Callsign LOT3951
Flight time 0h 32m
Altitude 22000
Route LOLSI DCT DIBLO DCT INDIG L980 MASIV
Aircraft B738/M-SDE2E3FGHIRWXY/LB1

Departure

Time 2026-04-23 18:35
Airport Warsaw Chopin Airport (EPWA)

Arrival

Time 2026-04-23 19:07
Airport Poznań-Ławica Airport (EPPO)
Time Latitude Longitude Altitude Speed Heading
2026-04-23 18:08 52.16880 20.97245 338 ft 0 kts 75°
2026-04-23 18:27 52.16877 20.97228 333 ft 2 kts 75°
2026-04-23 18:27 52.16873 20.97202 332 ft 2 kts 77°
2026-04-23 18:27 52.16870 20.97175 333 ft 2 kts 79°
2026-04-23 18:27 52.16867 20.97149 333 ft 2 kts 83°
2026-04-23 18:28 52.16866 20.97121 335 ft 2 kts 93°
2026-04-23 18:28 52.16870 20.97095 334 ft 2 kts 128°
2026-04-23 18:28 52.16881 20.97081 335 ft 1 kts 155°
2026-04-23 18:28 52.16883 20.97080 335 ft 0 kts 154°
2026-04-23 18:31 52.16874 20.97087 333 ft 3 kts 153°
2026-04-23 18:31 52.16849 20.97108 336 ft 7 kts 152°
2026-04-23 18:31 52.16795 20.97156 337 ft 11 kts 152°
2026-04-23 18:31 52.16716 20.97225 337 ft 15 kts 152°
2026-04-23 18:32 52.16617 20.97311 334 ft 16 kts 151°
2026-04-23 18:32 52.16554 20.97447 336 ft 17 kts 112°
2026-04-23 18:32 52.16499 20.97639 334 ft 20 kts 115°
2026-04-23 18:32 52.16442 20.97792 336 ft 11 kts 150°
2026-04-23 18:33 52.16386 20.97781 338 ft 0 kts 204°
2026-04-23 18:33 52.16385 20.97780 338 ft 1 kts 203°
2026-04-23 18:34 52.16367 20.97768 338 ft 6 kts 203°
2026-04-23 18:34 52.16315 20.97714 333 ft 11 kts 234°
2026-04-23 18:34 52.16325 20.97606 333 ft 10 kts 296°
2026-04-23 18:34 52.16432 20.97223 333 ft 74 kts 295°
2026-04-23 18:35 52.16750 20.96117 368 ft 134 kts 301°
2026-04-23 18:35 52.17145 20.94728 1051 ft 137 kts 300°
2026-04-23 18:35 52.17555 20.93298 1844 ft 138 kts 301°
2026-04-23 18:35 52.17962 20.91844 2588 ft 144 kts 301°
2026-04-23 18:36 52.18166 20.90190 3313 ft 160 kts 274°
2026-04-23 18:36 52.18074 20.88340 3913 ft 174 kts 277°
2026-04-23 18:36 52.18017 20.86176 4188 ft 205 kts 276°
2026-04-23 18:36 52.17952 20.83719 4426 ft 227 kts 277°
2026-04-23 18:37 52.18182 20.81087 4716 ft 243 kts 289°
2026-04-23 18:37 52.18600 20.78341 5380 ft 252 kts 289°
2026-04-23 18:37 52.18967 20.75546 6308 ft 256 kts 281°
2026-04-23 18:37 52.19007 20.72595 7135 ft 263 kts 275°
2026-04-23 18:38 52.18926 20.69583 7935 ft 268 kts 273°
2026-04-23 18:38 52.18822 20.66576 8746 ft 272 kts 273°
2026-04-23 18:38 52.18721 20.63595 9518 ft 276 kts 274°
2026-04-23 18:38 52.18636 20.60952 10182 ft 280 kts 274°
2026-04-23 18:39 52.18541 20.57693 10531 ft 300 kts 274°
2026-04-23 18:39 52.18448 20.54148 10718 ft 324 kts 274°
2026-04-23 18:39 52.18349 20.50386 11143 ft 338 kts 273°
2026-04-23 18:39 52.18245 20.46521 11830 ft 344 kts 273°
2026-04-23 18:40 52.18137 20.42600 12609 ft 347 kts 274°
2026-04-23 18:40 52.18030 20.38642 13380 ft 352 kts 274°
2026-04-23 18:40 52.17925 20.34689 14085 ft 357 kts 274°
2026-04-23 18:40 52.17817 20.30618 14817 ft 360 kts 274°
2026-04-23 18:41 52.17707 20.26480 15603 ft 363 kts 274°
2026-04-23 18:41 52.17598 20.22431 16322 ft 367 kts 274°
2026-04-23 18:41 52.17484 20.18203 17055 ft 372 kts 274°
2026-04-23 18:41 52.17370 20.13987 17776 ft 376 kts 274°
2026-04-23 18:42 52.17252 20.09699 18474 ft 380 kts 274°
2026-04-23 18:42 52.17132 20.05394 19112 ft 383 kts 274°
2026-04-23 18:42 52.17009 20.01050 19734 ft 386 kts 274°
2026-04-23 18:42 52.16880 19.96571 20345 ft 390 kts 275°
2026-04-23 18:43 52.16754 19.92214 20939 ft 393 kts 275°
2026-04-23 18:43 52.16623 19.87757 21610 ft 394 kts 275°
2026-04-23 18:43 52.16488 19.83286 22016 ft 394 kts 275°
2026-04-23 18:43 52.16352 19.78865 22033 ft 391 kts 275°
2026-04-23 18:44 52.16215 19.74448 22048 ft 392 kts 275°
2026-04-23 18:44 52.16078 19.69998 22055 ft 393 kts 275°
2026-04-23 18:44 52.15939 19.65542 22057 ft 393 kts 275°
2026-04-23 18:44 52.15798 19.61097 22056 ft 394 kts 275°
2026-04-23 18:45 52.15657 19.56689 22050 ft 394 kts 275°
2026-04-23 18:45 52.15511 19.52186 22050 ft 394 kts 275°
2026-04-23 18:45 52.15366 19.47774 22049 ft 394 kts 275°
2026-04-23 18:45 52.15217 19.43283 22047 ft 394 kts 275°
2026-04-23 18:46 52.15070 19.38893 22049 ft 393 kts 274°
2026-04-23 18:46 52.14917 19.34392 22049 ft 393 kts 274°
2026-04-23 18:46 52.14766 19.30010 22047 ft 393 kts 274°
2026-04-23 18:46 52.14612 19.25564 22049 ft 393 kts 274°
2026-04-23 18:47 52.14457 19.21122 22046 ft 393 kts 274°
2026-04-23 18:47 52.14299 19.16669 22054 ft 393 kts 274°
2026-04-23 18:47 52.14141 19.12232 22051 ft 394 kts 274°
2026-04-23 18:47 52.13980 19.07793 22053 ft 394 kts 274°
2026-04-23 18:48 52.13817 19.03333 22058 ft 395 kts 274°
2026-04-23 18:48 52.13651 18.98842 22049 ft 395 kts 274°
2026-04-23 18:48 52.13486 18.94403 22050 ft 395 kts 274°
2026-04-23 18:48 52.13319 18.89989 22051 ft 396 kts 274°
2026-04-23 18:49 52.13146 18.85453 22051 ft 396 kts 274°
2026-04-23 18:49 52.12974 18.80971 22055 ft 396 kts 274°
2026-04-23 18:49 52.12800 18.76507 22059 ft 396 kts 274°
2026-04-23 18:49 52.12624 18.72064 22042 ft 388 kts 274°
2026-04-23 18:50 52.12517 18.69446 22039 ft 380 kts 274°
2026-04-23 18:50 52.12284 18.63752 22048 ft 374 kts 274°
2026-04-23 18:50 52.12115 18.59530 22057 ft 374 kts 274°
2026-04-23 18:50 52.11947 18.55283 21847 ft 377 kts 274°
2026-04-23 18:51 52.11774 18.51045 21529 ft 372 kts 274°
2026-04-23 18:51 52.11601 18.46851 21123 ft 370 kts 274°
2026-04-23 18:51 52.11427 18.42695 20697 ft 366 kts 274°
2026-04-23 18:51 52.11254 18.38595 20275 ft 364 kts 274°
2026-04-23 18:52 52.11082 18.34549 19864 ft 361 kts 274°
2026-04-23 18:52 52.10906 18.30421 19440 ft 359 kts 274°
2026-04-23 18:52 52.10732 18.26387 19033 ft 357 kts 273°
2026-04-23 18:52 52.10558 18.22383 18617 ft 355 kts 273°
2026-04-23 18:53 52.10385 18.18418 18180 ft 354 kts 273°
2026-04-23 18:53 52.10207 18.14372 17707 ft 352 kts 273°
2026-04-23 18:53 52.10031 18.10405 17275 ft 350 kts 273°
2026-04-23 18:53 52.09854 18.06474 16859 ft 348 kts 273°
2026-04-23 18:54 52.09679 18.02614 16446 ft 345 kts 273°
2026-04-23 18:54 52.09504 17.98688 16040 ft 342 kts 274°
2026-04-23 18:54 52.09661 17.94902 15546 ft 330 kts 289°
2026-04-23 18:54 52.10378 17.91448 14918 ft 317 kts 302°
2026-04-23 18:55 52.11393 17.88328 14483 ft 307 kts 305°
2026-04-23 18:55 52.12380 17.85387 14276 ft 291 kts 305°
2026-04-23 18:55 52.13335 17.82537 13947 ft 283 kts 305°
2026-04-23 18:55 52.14263 17.79767 13492 ft 278 kts 305°
2026-04-23 18:56 52.14890 17.77898 13027 ft 280 kts 305°
2026-04-23 18:56 52.16138 17.74161 12182 ft 282 kts 304°
2026-04-23 18:56 52.17064 17.71376 11567 ft 283 kts 303°
2026-04-23 18:56 52.17997 17.68557 10957 ft 283 kts 303°
2026-04-23 18:57 52.18928 17.65735 10405 ft 282 kts 303°
2026-04-23 18:57 52.19833 17.62976 10221 ft 268 kts 303°
2026-04-23 18:57 52.20702 17.60326 10127 ft 266 kts 303°
2026-04-23 18:57 52.21580 17.57655 10060 ft 267 kts 302°
2026-04-23 18:58 52.22472 17.54943 9339 ft 280 kts 302°
2026-04-23 18:58 52.23390 17.52145 8772 ft 277 kts 302°
2026-04-23 18:58 52.24299 17.49361 8180 ft 276 kts 302°
2026-04-23 18:58 52.25197 17.46610 7615 ft 274 kts 301°
2026-04-23 18:59 52.26089 17.43874 7053 ft 273 kts 301°
2026-04-23 18:59 52.26974 17.41155 6501 ft 271 kts 301°
2026-04-23 18:59 52.27856 17.38445 5928 ft 269 kts 301°
2026-04-23 18:59 52.28707 17.35822 5804 ft 251 kts 301°
2026-04-23 19:00 52.29498 17.33379 5550 ft 240 kts 301°
2026-04-23 19:00 52.30283 17.30963 5075 ft 240 kts 300°
2026-04-23 19:00 52.31067 17.28548 4623 ft 239 kts 300°
2026-04-23 19:00 52.31829 17.26194 4393 ft 228 kts 300°
2026-04-23 19:01 52.32564 17.23919 4070 ft 224 kts 300°
2026-04-23 19:01 52.33275 17.21722 3876 ft 214 kts 300°
2026-04-23 19:01 52.33939 17.19667 3741 ft 200 kts 301°
2026-04-23 19:01 52.34567 17.17716 3567 ft 187 kts 301°
2026-04-23 19:02 52.34963 17.16489 3422 ft 181 kts 301°
2026-04-23 19:02 52.35723 17.14127 3181 ft 169 kts 302°
2026-04-23 19:02 52.36245 17.12465 3026 ft 160 kts 299°
2026-04-23 19:02 52.36673 17.10797 3008 ft 159 kts 295°
2026-04-23 19:03 52.37036 17.09105 2999 ft 154 kts 293°
2026-04-23 19:03 52.37360 17.07469 2916 ft 150 kts 293°
2026-04-23 19:03 52.37671 17.05856 2849 ft 147 kts 292°
2026-04-23 19:03 52.37964 17.04315 2810 ft 139 kts 292°
2026-04-23 19:04 52.38247 17.02827 2682 ft 138 kts 292°
2026-04-23 19:04 52.38532 17.01334 2506 ft 137 kts 292°
2026-04-23 19:04 52.38813 16.99855 2326 ft 137 kts 292°
2026-04-23 19:04 52.39096 16.98370 2141 ft 135 kts 292°
2026-04-23 19:05 52.39375 16.96907 1950 ft 134 kts 292°
2026-04-23 19:05 52.39560 16.95935 1835 ft 135 kts 293°
2026-04-23 19:05 52.39845 16.94444 1659 ft 136 kts 292°
2026-04-23 19:05 52.40123 16.92991 1448 ft 134 kts 291°
2026-04-23 19:06 52.40401 16.91537 1276 ft 134 kts 292°
2026-04-23 19:06 52.40681 16.90066 1089 ft 138 kts 290°
2026-04-23 19:06 52.40974 16.88535 884 ft 139 kts 289°
2026-04-23 19:06 52.41260 16.87036 697 ft 140 kts 288°
2026-04-23 19:07 52.41541 16.85509 516 ft 140 kts 288°
2026-04-23 19:07 52.41831 16.84013 327 ft 134 kts 289°
2026-04-23 19:07 52.42079 16.82742 298 ft 90 kts 288°
2026-04-23 19:07 52.42213 16.82061 309 ft 49 kts 288°
2026-04-23 19:08 52.42297 16.81584 309 ft 36 kts 277°
2026-04-23 19:08 52.42278 16.81237 308 ft 22 kts 257°
2026-04-23 19:08 52.42275 16.81217 310 ft 0 kts 257°
2026-04-23 19:09 52.42272 16.81200 309 ft 6 kts 248°
2026-04-23 19:09 52.42214 16.81195 306 ft 15 kts 128°
2026-04-23 19:10 52.42169 16.81413 306 ft 25 kts 109°
2026-04-23 19:10 52.42106 16.81732 308 ft 33 kts 108°
2026-04-23 19:10 52.42030 16.82126 306 ft 39 kts 105°
2026-04-23 19:10 52.41943 16.82571 301 ft 34 kts 108°
2026-04-23 19:11 52.41896 16.82822 297 ft 24 kts 108°
2026-04-23 19:11 52.41839 16.82907 299 ft 12 kts 188°
2026-04-23 19:11 52.41724 16.82852 294 ft 22 kts 189°
2026-04-23 19:11 52.41682 16.82844 299 ft 8 kts 187°
2026-04-23 19:12 52.41667 16.82808 296 ft 4 kts 271°
2026-04-23 19:12 52.41669 16.82719 297 ft 11 kts 263°
2026-04-23 19:12 52.41596 16.82660 294 ft 12 kts 182°
2026-04-23 19:12 52.41586 16.82659 294 ft 0 kts 182°